Zurück zum Katalog

STARLINK-1008

AktivKommunikationVLEO
NORAD 44714·PAYLOAD·🇺🇸 United States

Gestartet Nov 11, 2019 von Cape Canaveral Space Force Station

Loading…

Nächste Überflüge (nächste 24 Stunden)

TLE

AktuellSource: CelesTrak SupGP

Epoche: Sep 14, 2026, 12:46 UTC

1 44714C 19074B   26257.53243056  .00008144  00000+0  82283-4 0  2571
2 44714  53.1474 356.2185 0002196  73.6226  47.0433 15.64674083    16

Verfolge STARLINK-1008 in Echtzeit mit AllMySat

Download on the App Store